ATLAS 5 CENTAUR DEB, 43965

Orbit data source: Space-Track

ATLAS 5 CENTAUR DEB, 43965 is space debris in HEO originally from a launch on Wed, 17 Sep 2014 UTC launched from the Air Force Eastern Test Range (AFETR). Debris objects in space refer to the collection of defunct objects orbiting the Earth. Examples of debris include non-operational satellites, rocket bodies, and fragments generated from explosions, collisions, or faulty payload assembly.

Loading next visibility...
Identifier
43965, 2014-055U
Orbit
HEO
Country
Flag of USUS
Related business
Flag of USUnited Launch Alliance/Lockheed Martin (US)
Manufacturer
Unknown
Mission
Spacecraft
Bus & Motor
Unknown
Mass
Unknown
Launch date (UTC)
2014-09-17 (12 years ago)
Launch vehicle
Unknown
Launch site
Air Force Eastern Test Range (AFETR)
Object type
Payload
Rocket body
Debris
Shape & HBR
Unknown shape, 1.1 m
Radar Cross Section
RCS unknown

Expand to show TLE details & history
Last TLE update: 3 days ago

TLE from 3 days ago
0 ATLAS 5 CENTAUR DEB
1 43965U 14055U   26117.12380247 -.00000018  00000-0  00000-0 0  9996
2 43965  20.6506 129.6509 4874507 194.2357 144.6555  1.89978127 53062
Epoch: 2026-04-27T02:58Z
TLE epoch observation values (Epoch: 2026-04-27T02:58:16.533Z)
Latitude
-0.00002°
Longitude
-130.02255°
Altitude
33,396.086 km
Speed
2.36 km/s
True Right ascension
08h 38m 39s
True Declination
0° 00' 00"
Sunlit
Object was in daylight at epoch
Visualization orbit readout
Latitude
Unknown
Longitude
Unknown
Altitude
Unknown
Speed
Unknown
Apparent Right ascension
Unknown
Apparent Declination
Unknown
Sunlit
N/A
Visualization observer readout
Local Sidereal Time
22:19:41
Azimuth
Unknown
Elevation
Unknown
Doppler factor
Unknown
Orbital elements
Apogee altitude
34,586.248 km
Perigee altitude
7,737.468 km
Semi-major axis
27,539.995 km
Eccentricity
0.48745
Inclination
20.6506°
RAAN
129.6509°
Arg. of periapsis
194.2357°
True anomaly
165.78192°
Mean anomaly
144.6555°
Eccentric anomaly
156.01051°
Mean motion
0.47489 °/min
Orbital period
758.06 mins
BSTAR
0
Loading maneuver chart data...
Computing Atmospheric mass density...

Documentation

Showing up to 5 results
|